FW8888 Weather Reports


Display with metric or nautical units.
time (UTC)temp
F
wind
direction
speed
MPH
gust
MPH
rain 1hr
in
rain 24hr
in
rain mn
in
humidity
%
barometer
mb
20260505151555 72 0 1.0 4.0 0.00 0.00 0.00 61 1017.7
20260505130110 63 225 1.0 10.0 0.00 0.00 0.00 76 1017.5
20260505124600 62 219 0.0 3.0 0.00 0.00 0.00 78 1017.7
20260505123054 60 70 0.0 2.0 0.00 0.00 0.00 79 1017.7
20260505121552 59 231 1.0 2.0 0.00 0.00 0.00 81 1017.7
20260505120108 57 215 0.0 3.0 0.00 0.00 0.00 83 1017.5
20260505114555 57 216 0.0 2.0 0.00 0.00 0.00 83 1017.5
20260505113059 56 207 0.0 2.0 0.00 0.00 0.00 84 1017.4
20260505111553 55 0 0.0 0.0 0.00 0.00 0.00 86 1017.2
20260505101552 52 0 0.0 0.0 0.00 0.00 0.00 90 1016.6
20260505100051 52 0 0.0 0.0 0.00 0.00 0.00 90 1016.5
20260505094550 52 0 0.0 0.0 0.00 0.00 0.00 90 1016.3
20260505093050 52 0 0.0 1.0 0.00 0.00 0.00 90 1016.2
20260505091550 52 0 0.0 0.0 0.00 0.00 0.00 88 1016.0
20260505090053 52 0 0.0 0.0 0.00 0.00 0.00 88 1016.1
20260505084548 53 0 0.0 0.0 0.00 0.00 0.00 88 1016.0
20260505083049 53 0 0.0 0.0 0.00 0.00 0.00 87 1016.0
20260505081554 54 0 0.0 0.0 0.00 0.00 0.00 85 1015.7
20260505080050 55 0 0.0 0.0 0.00 0.00 0.00 84 1015.7
20260505074548 55 0 0.0 0.0 0.00 0.00 0.00 83 1015.6
20260505073050 56 0 0.0 0.0 0.00 0.00 0.00 83 1015.6
20260505071554 57 0 0.0 0.0 0.00 0.00 0.00 82 1015.6
20260505070053 58 0 0.0 1.0 0.00 0.00 0.00 76 1015.5
20260505064549 59 0 0.0 1.0 0.00 0.00 0.00 74 1015.5
20260505063052 60 206 0.0 3.0 0.00 0.00 0.00 72 1015.6
20260505061552 60 240 0.0 1.0 0.00 0.00 0.00 72 1015.5
20260505060050 61 212 0.0 2.0 0.00 0.00 0.00 71 1015.6
20260505054557 61 221 1.0 3.0 0.00 0.00 0.00 70 1015.7
20260505053101 62 207 1.0 3.0 0.00 0.00 0.00 70 1015.7
20260505051549 62 224 1.0 3.0 0.00 0.00 0.00 69 1015.7
20260505041552 64 226 2.0 5.0 0.00 0.00 0.00 66 1015.7
20260505040052 64 224 1.0 7.0 0.00 0.00 0.00 65 1015.8
20260505034550 65 230 1.0 4.0 0.00 0.00 0.00 64 1015.7
20260505033054 65 221 1.0 6.0 0.00 0.00 0.00 64 1015.8
20260505031549 66 177 3.0 7.0 0.00 0.00 0.00 64 1015.7
20260505030053 66 213 1.0 5.0 0.00 0.00 0.00 64 1015.6
20260505024552 67 238 2.0 8.0 0.00 0.00 0.00 63 1015.6
20260505023056 67 203 2.0 7.0 0.00 0.00 0.00 61 1015.7
20260505021549 68 186 3.0 8.0 0.00 0.00 0.00 59 1015.5
20260505020055 69 223 1.0 10.0 0.00 0.00 0.00 55 1015.3
20260505014550 69 222 2.0 8.0 0.00 0.00 0.00 50 1015.0
20260505013051 68 234 0.0 1.0 0.00 0.00 0.00 49 1014.9
20260505011552 69 0 0.0 2.0 0.00 0.00 0.00 48 1014.5
20260505010051 71 0 0.0 3.0 0.00 0.00 0.00 46 1014.4
20260505004552 71 0 1.0 3.0 0.00 0.00 0.00 45 1014.2
20260505003057 71 0 0.0 1.0 0.00 0.00 0.00 45 1013.9
20260505001556 72 219 0.0 3.0 0.00 0.00 0.00 42 1013.9
20260505000105 73 257 1.0 3.0 0.00 0.00 0.00 41 1013.9
20260504234556 74 0 0.0 4.0 0.00 0.00 0.00 39 1013.7
20260504233055 75 231 2.0 8.0 0.00 0.00 0.00 38 1013.5
20260504231558 76 226 0.0 4.0 0.00 0.00 0.00 35 1013.4
20260504230050 76 243 1.0 5.0 0.00 0.00 0.00 34 1013.5
20260504224550 76 210 2.0 5.0 0.00 0.00 0.00 34 1013.5
20260504223051 77 214 2.0 4.0 0.00 0.00 0.00 33 1013.5
20260504221554 77 236 1.0 4.0 0.00 0.00 0.00 34 1013.5
20260504220115 77 215 1.0 4.0 0.00 0.00 0.00 35 1013.6
20260504214558 77 222 2.0 6.0 0.00 0.00 0.00 36 1013.6
20260504213054 77 159 4.0 9.0 0.00 0.00 0.00 34 1013.6
20260504211555 77 222 2.0 6.0 0.00 0.00 0.00 35 1013.7
20260504210052 76 200 1.0 5.0 0.00 0.00 0.00 37 1013.7
20260504204559 77 221 1.0 5.0 0.00 0.00 0.00 37 1013.7
20260504203055 76 0 3.0 8.0 0.00 0.00 0.00 35 1013.9
20260504201553 76 205 0.0 6.0 0.00 0.00 0.00 35 1014.1
20260504200057 76 0 0.0 6.0 0.00 0.00 0.00 36 1014.1
20260504194553 76 224 1.0 4.0 0.00 0.00 0.00 37 1014.4
20260504193051 75 216 0.0 6.0 0.00 0.00 0.00 37 1014.6
20260504191557 76 203 1.0 5.0 0.00 0.00 0.00 37 1014.7
20260504190108 75 176 1.0 6.0 0.00 0.00 0.00 38 1014.6
20260504184609 74 219 1.0 5.0 0.00 0.00 0.00 39 1015.0
20260504183052 74 0 1.0 7.0 0.00 0.00 0.00 39 1015.1
20260504181549 74 212 2.0 5.0 0.00 0.00 0.00 38 1015.4
20260504180053 73 0 1.0 4.0 0.00 0.00 0.00 39 1015.5
20260504174559 73 226 1.0 6.0 0.00 0.00 0.00 40 1015.5
20260504173102 73 212 0.0 3.0 0.00 0.00 0.00 42 1015.8
20260504171553 73 225 1.0 5.0 0.00 0.00 0.00 41 1016.1